Location: Newark
(25.4800°N, 85.7200°E)
Time: 00:27:51
(UTC+00:00)

Vanguard 1 Rocket - Pass Details

Date: 19 August 2019
Orbit: 651 x 4225 km, 34.3° (Epoch: 19 September)

Event Time Altitude Azimuth Distance (km) Brightness Sun altitude
Rises 17:23:51 0° 202° (SSW) 3,819 - -49.4°
Reaches altitude 10° 17:28:42 10° 171° (S) 2,374 - -49.8°
Maximum altitude 17:30:36 12° 150° (SSE) 2,104 - -49.9°
Drops below altitude 10° 17:32:21 10° 127° (SE) 2,131 - -50.0°
Sets 17:36:03 0° 93° (E) 2,953 - -50.3°
